Weather History for Blue Canyon, CA

Change the Weather History Date:

Monday, October 15, 2012

  Actual Average Record
Temperature  
Mean Temperature 62 °F -  
Max Temperature 70 °F 61 °F 79 °F (1961)
Min Temperature 55 °F 45 °F 26 °F (1971)
Degree Days  
Heating Degree Days 3    
Growing Degree Days 12 (Base 50)    
Moisture  
Dew Point 36 °F    
Average Humidity 39    
Maximum Humidity 57    
Minimum Humidity 24    
Precipitation  
Precipitation 0.00 in - - ()
Sea Level Pressure  
Sea Level Pressure 30.02 in    
Wind  
Wind Speed 3 mph (South)    
Max Wind Speed 7 mph    
Max Gust Speed -    
Visibility 10 miles    
Events      
Averages and records for this station are not official NWS values.
T = Trace of Precipitation, MM = Missing Value Source: NWS Daily Summary

Daily Weather History Graph

Daily Weather History Graph

Search for Another Location

Airport:

Trip Planner

Search our weather history database for the weather conditions in past years. The results will help you decide how hot, cold, wet, or windy it might be!

Date:

Astronomy

Oct. 15, 2012 Rise Set
Actual Time 7:13 AM PDT 6:23 PM PDT
Civil Twilight 6:46 AM PDT 6:50 PM PDT
Nautical Twilight 6:15 AM PDT 7:21 PM PDT
Astronomical Twilight 5:44 AM PDT 7:52 PM PDT
Moon 7:29 AM PDT (10/15) 6:26 PM PDT (10/15)
Length of Visible Light 12h 03m
Length of Day
11h 09m
New Moon, 0% of the Moon is Illuminated
Oct 15
New Moon
Oct 21
First Quarter
Oct 29
Full
Nov 6
Last Quarter
Nov 13
New

Hourly Weather History & Observations

Time (PDT) Temp. Dew Point Humidity Pressure Visibility Wind Dir Wind Speed Gust Speed Precip Events Conditions
12:52 AM 57.9 °F 35.1 °F 42% 30.05 in 10.0 mi Calm Calm - N/A   Clear
1:52 AM 57.9 °F 33.1 °F 39% 30.04 in 10.0 mi SSE 3.5 mph - N/A   Clear
2:52 AM 57.0 °F 32.0 °F 39% 30.03 in 10.0 mi ESE 3.5 mph - N/A   Clear
3:52 AM 55.9 °F 30.0 °F 37% 30.02 in 10.0 mi ESE 3.5 mph - N/A   Clear
4:52 AM 55.9 °F 30.0 °F 37% 30.04 in 10.0 mi Calm Calm - N/A   Clear
5:52 AM 55.9 °F 30.0 °F 37% 30.05 in 10.0 mi Calm Calm - N/A   Clear
6:52 AM 55.9 °F 30.9 °F 39% 30.07 in 10.0 mi ESE 3.5 mph - N/A   Clear
7:52 AM 55.9 °F 30.9 °F 39% 30.07 in 10.0 mi East 3.5 mph - N/A   Clear
8:52 AM 59.0 °F 30.9 °F 35% 30.06 in 10.0 mi Calm Calm - N/A   Clear
9:52 AM 62.1 °F 30.9 °F 31% 30.06 in 10.0 mi SE 4.6 mph - N/A   Clear
10:52 AM 64.0 °F 30.0 °F 28% 30.05 in 10.0 mi SE 4.6 mph - N/A   Clear
11:52 AM 66.0 °F 30.9 °F 27% 30.05 in 10.0 mi SSW 4.6 mph - N/A   Clear
12:52 PM 68.0 °F 30.0 °F 24% 30.01 in 10.0 mi Variable 4.6 mph - N/A   Clear
1:52 PM 69.1 °F 30.9 °F 24% 29.98 in 10.0 mi Variable 4.6 mph - N/A   Clear
2:52 PM 69.1 °F 33.1 °F 26% 29.96 in 10.0 mi WNW 6.9 mph - N/A   Clear
3:52 PM 69.1 °F 36.0 °F 30% 29.97 in 10.0 mi West 6.9 mph - N/A   Clear
4:52 PM 68.0 °F 37.9 °F 33% 29.98 in 10.0 mi West 6.9 mph - N/A   Clear
5:52 PM 64.9 °F 44.1 °F 47% 29.98 in 10.0 mi WSW 4.6 mph - N/A   Clear
6:52 PM 62.1 °F 45.0 °F 53% 29.99 in 10.0 mi West 3.5 mph - N/A   Clear
7:52 PM 60.1 °F 45.0 °F 57% 30.01 in 10.0 mi Calm Calm - N/A   Clear
8:52 PM 60.1 °F 45.0 °F 57% 30.00 in 10.0 mi Calm Calm - N/A   Clear
9:52 PM 61.0 °F 44.1 °F 54% 29.99 in 10.0 mi Calm Calm - N/A   Clear
10:52 PM 59.0 °F 42.1 °F 53% 29.99 in 10.0 mi Calm Calm - N/A   Clear
11:52 PM 61.0 °F 45.0 °F 56% 29.96 in 10.0 mi NNW 3.5 mph - N/A   Clear